Time,TemperatureF,DewpointF,PressureIn,WindDirection,WindDirectionDegrees,WindSpeedMPH,WindSpeedGustMPH,Humidity,HourlyPrecipIn,Conditions,Clouds,dailyrainin,SoftwareType,DateUTC
2012-10-07 00:02:00,54.4,37.5,30.08,WNW,293,0.0,1.3,53,0.00,,,0.00,WUHU216HW,2012-10-07 07:02:00,
2012-10-07 00:07:00,54.0,37.2,30.08,WNW,293,0.4,1.3,53,0.00,,,0.00,WUHU216HW,2012-10-07 07:07:00,
2012-10-07 00:12:00,54.0,37.2,30.08,WSW,248,1.1,1.6,53,0.00,,,0.00,WUHU216HW,2012-10-07 07:12:00,
2012-10-07 00:17:00,53.6,37.4,30.07,WSW,248,0.0,1.6,54,0.00,,,0.00,WUHU216HW,2012-10-07 07:17:00,
2012-10-07 00:22:00,53.6,37.4,30.07,West,270,0.4,1.1,54,0.00,,,0.00,WUHU216HW,2012-10-07 07:22:00,
2012-10-07 00:27:00,53.5,37.2,30.08,NW,315,0.0,0.7,54,0.00,,,0.00,WUHU216HW,2012-10-07 07:27:00,
2012-10-07 00:32:00,53.3,37.4,30.07,NW,315,0.0,0.7,55,0.00,,,0.00,WUHU216HW,2012-10-07 07:32:00,
2012-10-07 00:37:00,52.9,37.1,30.07,NW,315,1.1,1.3,55,0.00,,,0.00,WUHU216HW,2012-10-07 07:37:00,
2012-10-07 00:42:00,52.9,37.1,30.07,NW,315,0.4,1.3,55,0.00,,,0.00,WUHU216HW,2012-10-07 07:42:00,
2012-10-07 00:48:00,52.7,37.5,30.07,NW,315,0.2,1.6,56,0.00,,,0.00,WUHU216HW,2012-10-07 07:48:00,
2012-10-07 00:53:00,52.4,37.1,30.07,NW,315,0.0,1.6,56,0.00,,,0.00,WUHU216HW,2012-10-07 07:53:00,
2012-10-07 00:58:00,52.2,37.4,30.07,NNE,23,0.4,1.6,57,0.00,,,0.00,WUHU216HW,2012-10-07 07:58:00,
2012-10-07 01:03:00,52.2,37.4,30.07,East,90,0.2,1.8,57,0.00,,,0.00,WUHU216HW,2012-10-07 08:03:00,
2012-10-07 01:08:00,52.2,37.4,30.08,East,90,0.0,1.8,57,0.00,,,0.00,WUHU216HW,2012-10-07 08:08:00,
2012-10-07 01:13:00,52.2,37.4,30.08,East,90,0.0,0.2,57,0.00,,,0.00,WUHU216HW,2012-10-07 08:13:00,
2012-10-07 01:18:00,52.0,37.6,30.08,East,90,0.2,0.4,58,0.00,,,0.00,WUHU216HW,2012-10-07 08:18:00,
2012-10-07 01:23:00,51.8,37.4,30.08,East,90,0.0,0.4,58,0.00,,,0.00,WUHU216HW,2012-10-07 08:23:00,
2012-10-07 01:28:00,51.8,37.4,30.07,East,90,0.0,0.2,58,0.00,,,0.00,WUHU216HW,2012-10-07 08:28:00,
2012-10-07 01:33:00,51.7,37.7,30.07,NNE,23,1.1,1.1,59,0.00,,,0.00,WUHU216HW,2012-10-07 08:33:00,
2012-10-07 01:38:00,51.7,37.7,30.08,North,0,0.4,1.6,59,0.00,,,0.00,WUHU216HW,2012-10-07 08:38:00,
2012-10-07 01:43:00,51.5,37.5,30.08,East,90,0.7,1.6,59,0.00,,,0.00,WUHU216HW,2012-10-07 08:43:00,
2012-10-07 01:48:00,51.5,38.0,30.07,East,90,1.1,1.1,60,0.00,,,0.00,WUHU216HW,2012-10-07 08:48:00,
2012-10-07 01:53:00,51.5,38.0,30.07,East,90,2.0,2.0,60,0.00,,,0.00,WUHU216HW,2012-10-07 08:53:00,
2012-10-07 01:58:00,51.5,38.0,30.07,NNE,23,0.9,3.4,60,0.00,,,0.00,WUHU216HW,2012-10-07 08:58:00,
2012-10-07 02:03:00,51.7,38.2,30.07,NNE,23,1.1,3.4,60,0.00,,,0.00,WUHU216HW,2012-10-07 09:03:00,
2012-10-07 02:08:00,51.8,38.3,30.07,NNE,23,1.8,2.5,60,0.00,,,0.00,WUHU216HW,2012-10-07 09:08:00,
2012-10-07 02:13:00,51.8,38.8,30.07,NE,45,1.1,2.5,61,0.00,,,0.00,WUHU216HW,2012-10-07 09:13:00,
2012-10-07 02:18:00,52.0,39.0,30.07,NW,315,0.4,2.5,61,0.00,,,0.00,WUHU216HW,2012-10-07 09:18:00,
2012-10-07 02:23:00,52.0,39.0,30.07,SE,135,0.9,2.5,61,0.00,,,0.00,WUHU216HW,2012-10-07 09:23:00,
2012-10-07 02:28:00,52.2,39.2,30.07,SE,135,1.3,1.8,61,0.00,,,0.00,WUHU216HW,2012-10-07 09:28:00,
2012-10-07 02:33:00,52.2,39.2,30.07,NE,45,0.4,2.5,61,0.00,,,0.00,WUHU216HW,2012-10-07 09:33:00,
2012-10-07 02:38:00,52.2,39.2,30.07,NE,45,1.1,2.7,61,0.00,,,0.00,WUHU216HW,2012-10-07 09:38:00,
2012-10-07 02:43:00,52.2,39.2,30.07,NE,45,2.0,2.7,61,0.00,,,0.00,WUHU216HW,2012-10-07 09:43:00,
2012-10-07 02:48:00,52.2,39.2,30.07,NE,45,1.1,2.0,61,0.00,,,0.00,WUHU216HW,2012-10-07 09:48:00,
2012-10-07 02:53:00,52.2,39.2,30.07,ENE,68,0.7,3.4,61,0.00,,,0.00,WUHU216HW,2012-10-07 09:53:00,
2012-10-07 02:58:00,52.2,39.2,30.06,NNE,23,0.0,3.4,61,0.00,,,0.00,WUHU216HW,2012-10-07 09:58:00,
2012-10-07 03:03:00,52.0,39.0,30.06,NNE,23,1.6,2.0,61,0.00,,,0.00,WUHU216HW,2012-10-07 10:03:00,
2012-10-07 03:08:00,52.0,39.0,30.06,NNE,23,0.0,2.0,61,0.00,,,0.00,WUHU216HW,2012-10-07 10:08:00,
2012-10-07 03:13:00,51.8,39.2,30.06,NNE,23,0.2,1.8,62,0.00,,,0.00,WUHU216HW,2012-10-07 10:13:00,
2012-10-07 03:18:00,51.7,39.0,30.06,ENE,68,1.3,2.0,62,0.00,,,0.00,WUHU216HW,2012-10-07 10:18:00,
2012-10-07 03:23:00,51.5,38.9,30.06,SE,135,0.2,2.0,62,0.00,,,0.00,WUHU216HW,2012-10-07 10:23:00,
2012-10-07 03:28:00,51.5,39.2,30.06,East,90,0.4,2.5,63,0.00,,,0.00,WUHU216HW,2012-10-07 10:28:00,
2012-10-07 03:33:00,51.3,39.1,30.06,East,90,1.6,2.5,63,0.00,,,0.00,WUHU216HW,2012-10-07 10:33:00,
2012-10-07 03:38:00,51.1,39.3,30.06,NE,45,1.1,3.1,64,0.00,,,0.00,WUHU216HW,2012-10-07 10:38:00,
2012-10-07 03:43:00,50.9,39.2,30.06,NNE,23,3.1,3.1,64,0.00,,,0.00,WUHU216HW,2012-10-07 10:43:00,
2012-10-07 03:48:00,50.9,39.2,30.06,ENE,68,0.9,3.1,64,0.00,,,0.00,WUHU216HW,2012-10-07 10:48:00,
2012-10-07 03:53:00,50.8,39.0,30.06,NNE,23,1.8,3.1,64,0.00,,,0.00,WUHU216HW,2012-10-07 10:53:00,
2012-10-07 03:58:00,50.8,39.4,30.06,ESE,113,1.1,3.6,65,0.00,,,0.00,WUHU216HW,2012-10-07 10:58:00,
2012-10-07 04:03:00,50.8,39.4,30.06,East,90,0.7,3.6,65,0.00,,,0.00,WUHU216HW,2012-10-07 11:03:00,
2012-10-07 04:08:00,50.8,39.8,30.06,ENE,68,1.1,3.4,66,0.00,,,0.00,WUHU216HW,2012-10-07 11:08:00,
2012-10-07 04:13:00,50.8,39.8,30.05,ENE,68,0.4,2.5,66,0.00,,,0.00,WUHU216HW,2012-10-07 11:13:00,
2012-10-07 04:18:00,50.8,40.2,30.05,ENE,68,0.4,1.8,67,0.00,,,0.00,WUHU216HW,2012-10-07 11:18:00,
2012-10-07 04:23:00,50.6,40.1,30.05,NNE,23,0.7,2.5,67,0.00,,,0.00,WUHU216HW,2012-10-07 11:23:00,
2012-10-07 04:28:00,50.4,39.4,30.05,NE,45,1.8,3.4,66,0.00,,,0.00,WUHU216HW,2012-10-07 11:28:00,
2012-10-07 04:33:00,50.4,39.9,30.05,ENE,68,1.8,3.4,67,0.00,,,0.00,WUHU216HW,2012-10-07 11:33:00,
2012-10-07 04:38:00,50.4,39.4,30.05,East,90,2.5,2.7,66,0.00,,,0.00,WUHU216HW,2012-10-07 11:38:00,
2012-10-07 04:43:00,50.6,40.1,30.05,ENE,68,1.1,3.8,67,0.00,,,0.00,WUHU216HW,2012-10-07 11:43:00,
2012-10-07 04:48:00,50.6,40.1,30.05,SE,135,0.4,3.8,67,0.00,,,0.00,WUHU216HW,2012-10-07 11:48:00,
2012-10-07 04:53:00,50.8,40.6,30.05,NW,315,0.9,2.5,68,0.00,,,0.00,WUHU216HW,2012-10-07 11:53:00,
2012-10-07 04:58:00,50.8,40.6,30.05,ENE,68,1.6,2.9,68,0.00,,,0.00,WUHU216HW,2012-10-07 11:58:00,
2012-10-07 05:03:00,50.8,40.6,30.05,NE,45,2.0,4.3,68,0.00,,,0.00,WUHU216HW,2012-10-07 12:03:00,
2012-10-07 05:08:00,50.8,40.6,30.05,ENE,68,3.8,5.4,68,0.00,,,0.00,WUHU216HW,2012-10-07 12:08:00,
2012-10-07 05:13:00,50.8,40.6,30.05,NE,45,3.1,5.4,68,0.00,,,0.00,WUHU216HW,2012-10-07 12:13:00,
2012-10-07 05:18:00,50.8,40.6,30.05,East,90,3.6,4.7,68,0.00,,,0.00,WUHU216HW,2012-10-07 12:18:00,
2012-10-07 05:23:00,50.9,40.8,30.05,East,90,3.6,5.4,68,0.00,,,0.00,WUHU216HW,2012-10-07 12:23:00,
2012-10-07 05:28:00,51.1,41.0,30.05,ENE,68,3.1,5.4,68,0.00,,,0.00,WUHU216HW,2012-10-07 12:28:00,
2012-10-07 05:33:00,51.3,41.1,30.05,NNE,23,4.0,6.0,68,0.00,,,0.00,WUHU216HW,2012-10-07 12:33:00,
2012-10-07 05:38:00,51.5,41.3,30.05,NNE,23,3.4,6.0,68,0.00,,,0.00,WUHU216HW,2012-10-07 12:38:00,
2012-10-07 05:43:00,51.5,41.3,30.05,NE,45,2.7,5.8,68,0.00,,,0.00,WUHU216HW,2012-10-07 12:43:00,
2012-10-07 05:48:00,51.5,41.3,30.05,ENE,68,2.5,5.6,68,0.00,,,0.00,WUHU216HW,2012-10-07 12:48:00,
2012-10-07 05:53:00,51.5,41.3,30.05,NNE,23,4.3,4.7,68,0.00,,,0.00,WUHU216HW,2012-10-07 12:53:00,
2012-10-07 05:58:00,51.5,41.3,30.05,NE,45,4.7,4.7,68,0.00,,,0.00,WUHU216HW,2012-10-07 12:58:00,
2012-10-07 06:03:00,51.5,41.3,30.05,NNE,23,5.1,5.1,68,0.00,,,0.00,WUHU216HW,2012-10-07 13:03:00,
2012-10-07 06:08:00,51.3,41.1,30.04,NE,45,1.8,5.1,68,0.00,,,0.00,WUHU216HW,2012-10-07 13:08:00,
2012-10-07 06:13:00,51.1,41.0,30.04,NE,45,0.2,4.5,68,0.00,,,0.00,WUHU216HW,2012-10-07 13:13:00,
2012-10-07 06:18:00,51.1,41.0,30.04,NNE,23,1.6,4.0,68,0.00,,,0.00,WUHU216HW,2012-10-07 13:18:00,
2012-10-07 06:23:00,51.1,41.0,30.04,East,90,2.0,4.0,68,0.00,,,0.00,WUHU216HW,2012-10-07 13:23:00,
2012-10-07 06:28:00,51.1,41.0,30.04,NE,45,3.8,3.8,68,0.00,,,0.00,WUHU216HW,2012-10-07 13:28:00,
2012-10-07 06:33:00,51.1,41.0,30.04,ENE,68,2.5,8.3,68,0.00,,,0.00,WUHU216HW,2012-10-07 13:33:00,
2012-10-07 06:38:00,51.1,41.0,30.04,SE,135,3.6,8.3,68,0.00,,,0.00,WUHU216HW,2012-10-07 13:38:00,
2012-10-07 06:43:00,51.1,41.3,30.04,North,0,1.1,4.7,69,0.00,,,0.00,WUHU216HW,2012-10-07 13:43:00,
2012-10-07 06:48:00,51.1,41.3,30.04,NNE,23,0.4,5.6,69,0.00,,,0.00,WUHU216HW,2012-10-07 13:48:00,
2012-10-07 06:53:00,50.9,41.2,30.04,NNE,23,0.0,5.6,69,0.00,,,0.00,WUHU216HW,2012-10-07 13:53:00,
2012-10-07 06:58:00,50.9,41.2,30.04,ENE,68,1.1,3.1,69,0.00,,,0.00,WUHU216HW,2012-10-07 13:58:00,
2012-10-07 07:03:00,50.9,41.2,30.04,North,0,3.1,3.1,69,0.00,,,0.00,WUHU216HW,2012-10-07 14:03:00,
2012-10-07 07:08:00,50.8,41.4,30.04,ENE,68,1.1,3.8,70,0.00,,,0.00,WUHU216HW,2012-10-07 14:08:00,
2012-10-07 07:13:00,50.8,41.4,30.05,ESE,113,0.0,3.8,70,0.00,,,0.00,WUHU216HW,2012-10-07 14:13:00,
2012-10-07 07:18:00,50.8,41.8,30.05,East,90,1.1,4.0,71,0.00,,,0.00,WUHU216HW,2012-10-07 14:18:00,
2012-10-07 07:23:00,50.8,41.4,30.05,SE,135,1.3,4.0,70,0.00,,,0.00,WUHU216HW,2012-10-07 14:23:00,
2012-10-07 07:28:00,50.8,41.8,30.05,NNE,23,1.8,2.5,71,0.00,,,0.00,WUHU216HW,2012-10-07 14:28:00,
2012-10-07 07:33:00,50.6,41.2,30.05,SE,135,0.0,2.5,70,0.00,,,0.00,WUHU216HW,2012-10-07 14:33:00,
2012-10-07 07:38:00,50.6,41.2,30.05,SE,135,0.4,2.5,70,0.00,,,0.00,WUHU216HW,2012-10-07 14:38:00,
2012-10-07 07:43:00,50.6,41.6,30.05,NNW,338,0.4,1.1,71,0.00,,,0.00,WUHU216HW,2012-10-07 14:43:00,
2012-10-07 07:48:00,50.6,41.6,30.04,NNE,23,1.3,1.3,71,0.00,,,0.00,WUHU216HW,2012-10-07 14:48:00,
2012-10-07 07:53:00,50.8,41.8,30.05,ENE,68,0.2,1.3,71,0.00,,,0.00,WUHU216HW,2012-10-07 14:53:00,
2012-10-07 07:58:00,50.9,42.0,30.05,ENE,68,0.0,1.3,71,0.00,,,0.00,WUHU216HW,2012-10-07 14:58:00,
2012-10-07 08:03:00,51.3,42.7,30.05,ENE,68,0.4,0.4,72,0.00,,,0.00,WUHU216HW,2012-10-07 15:03:00,
2012-10-07 08:08:00,51.8,43.2,30.05,ESE,113,0.0,0.9,72,0.00,,,0.00,WUHU216HW,2012-10-07 15:08:00,
2012-10-07 08:13:00,52.4,43.7,30.05,ESE,113,0.0,0.9,72,0.00,,,0.00,WUHU216HW,2012-10-07 15:13:00,
2012-10-07 08:18:00,52.9,43.8,30.05,ESE,113,0.0,0.0,71,0.00,,,0.00,WUHU216HW,2012-10-07 15:18:00,
2012-10-07 08:23:00,53.5,44.6,30.05,ESE,113,0.0,0.4,72,0.00,,,0.00,WUHU216HW,2012-10-07 15:23:00,
2012-10-07 08:28:00,53.8,44.7,30.05,ESE,113,0.0,0.4,71,0.00,,,0.00,WUHU216HW,2012-10-07 15:28:00,
2012-10-07 08:33:00,54.0,44.8,30.05,ESE,113,0.0,0.2,71,0.00,,,0.00,WUHU216HW,2012-10-07 15:33:00,
2012-10-07 08:38:00,54.5,45.4,30.05,ESE,113,0.0,0.0,71,0.00,,,0.00,WUHU216HW,2012-10-07 15:38:00,
2012-10-07 08:43:00,55.3,46.1,30.05,ESE,113,0.7,0.9,71,0.00,,,0.00,WUHU216HW,2012-10-07 15:43:00,
2012-10-07 08:48:00,55.8,46.3,30.05,ESE,113,1.1,1.1,70,0.00,,,0.00,WUHU216HW,2012-10-07 15:48:00,
2012-10-07 08:53:00,56.5,46.4,30.05,East,90,1.1,1.6,69,0.00,,,0.00,WUHU216HW,2012-10-07 15:53:00,
2012-10-07 08:58:00,56.9,46.8,30.05,East,90,0.9,1.8,69,0.00,,,0.00,WUHU216HW,2012-10-07 15:58:00,
2012-10-07 09:03:00,57.4,46.9,30.05,NE,45,0.7,2.2,68,0.00,,,0.00,WUHU216HW,2012-10-07 16:03:00,
2012-10-07 09:08:00,57.8,47.3,30.05,NNW,338,0.4,2.2,68,0.00,,,0.00,WUHU216HW,2012-10-07 16:08:00,
2012-10-07 09:13:00,58.0,47.1,30.05,NE,45,1.1,3.1,67,0.00,,,0.00,WUHU216HW,2012-10-07 16:13:00,
2012-10-07 09:18:00,58.3,47.3,30.05,NNE,23,2.7,3.1,67,0.00,,,0.00,WUHU216HW,2012-10-07 16:18:00,
2012-10-07 09:23:00,58.5,47.2,30.05,NNE,23,0.7,3.6,66,0.00,,,0.00,WUHU216HW,2012-10-07 16:23:00,
2012-10-07 09:28:00,58.7,46.9,30.05,NE,45,1.8,3.6,65,0.00,,,0.00,WUHU216HW,2012-10-07 16:28:00,
2012-10-07 09:33:00,59.0,47.3,30.05,NE,45,1.3,3.8,65,0.00,,,0.00,WUHU216HW,2012-10-07 16:33:00,
2012-10-07 09:38:00,59.2,47.4,30.05,ESE,113,0.7,3.8,65,0.00,,,0.00,WUHU216HW,2012-10-07 16:38:00,
2012-10-07 09:43:00,59.8,48.0,30.05,SE,135,1.1,3.4,65,0.00,,,0.00,WUHU216HW,2012-10-07 16:43:00,
2012-10-07 09:48:00,60.1,48.3,30.05,ESE,113,1.8,3.1,65,0.00,,,0.00,WUHU216HW,2012-10-07 16:48:00,
2012-10-07 09:53:00,60.5,48.7,30.05,ENE,68,1.6,3.1,65,0.00,,,0.00,WUHU216HW,2012-10-07 16:53:00,
2012-10-07 09:58:00,60.8,48.6,30.05,ESE,113,1.6,2.9,64,0.00,,,0.00,WUHU216HW,2012-10-07 16:58:00,
2012-10-07 10:03:00,61.2,49.0,30.05,East,90,1.8,2.5,64,0.00,,,0.00,WUHU216HW,2012-10-07 17:03:00,
2012-10-07 10:08:00,61.6,48.9,30.05,ESE,113,2.2,2.5,63,0.00,,,0.00,WUHU216HW,2012-10-07 17:08:00,
2012-10-07 10:13:00,61.6,49.3,30.05,ESE,113,1.1,2.5,64,0.00,,,0.00,WUHU216HW,2012-10-07 17:13:00,
2012-10-07 10:18:00,61.7,49.1,30.05,NNE,23,1.8,2.5,63,0.00,,,0.00,WUHU216HW,2012-10-07 17:18:00,
2012-10-07 10:23:00,61.9,49.2,30.05,East,90,2.0,3.4,63,0.00,,,0.00,WUHU216HW,2012-10-07 17:23:00,
2012-10-07 10:28:00,62.1,49.3,30.05,ESE,113,1.8,3.4,63,0.00,,,0.00,WUHU216HW,2012-10-07 17:28:00,
2012-10-07 10:33:00,62.6,49.9,30.04,ESE,113,1.1,2.5,63,0.00,,,0.00,WUHU216HW,2012-10-07 17:33:00,
2012-10-07 10:38:00,63.0,49.8,30.04,ENE,68,1.6,2.5,62,0.00,,,0.00,WUHU216HW,2012-10-07 17:38:00,
2012-10-07 10:43:00,63.4,49.7,30.05,NE,45,2.5,3.1,61,0.00,,,0.00,WUHU216HW,2012-10-07 17:43:00,
2012-10-07 10:48:00,63.4,49.7,30.04,East,90,2.5,3.1,61,0.00,,,0.00,WUHU216HW,2012-10-07 17:48:00,
2012-10-07 10:53:00,63.7,49.6,30.04,NE,45,1.1,3.1,60,0.00,,,0.00,WUHU216HW,2012-10-07 17:53:00,
2012-10-07 10:58:00,63.7,49.1,30.04,NE,45,2.5,3.1,59,0.00,,,0.00,WUHU216HW,2012-10-07 17:58:00,
2012-10-07 11:03:00,63.9,48.8,30.04,NNE,23,2.2,4.0,58,0.00,,,0.00,WUHU216HW,2012-10-07 18:03:00,
2012-10-07 11:08:00,63.9,47.8,30.04,NE,45,4.0,5.6,56,0.00,,,0.00,WUHU216HW,2012-10-07 18:08:00,
2012-10-07 11:13:00,63.9,46.8,30.04,NNE,23,4.0,6.5,54,0.00,,,0.00,WUHU216HW,2012-10-07 18:13:00,
2012-10-07 11:18:00,63.9,47.4,30.04,NE,45,4.0,6.5,55,0.00,,,0.00,WUHU216HW,2012-10-07 18:18:00,
2012-10-07 11:23:00,64.3,47.6,30.04,NE,45,2.5,5.6,55,0.00,,,0.00,WUHU216HW,2012-10-07 18:23:00,
2012-10-07 11:28:00,64.4,47.4,30.04,ENE,68,1.1,5.4,54,0.00,,,0.00,WUHU216HW,2012-10-07 18:28:00,
2012-10-07 11:33:00,64.8,47.7,30.04,NNE,23,1.8,5.4,54,0.00,,,0.00,WUHU216HW,2012-10-07 18:33:00,
2012-10-07 11:38:00,65.0,47.9,30.04,ESE,113,2.0,4.7,54,0.00,,,0.00,WUHU216HW,2012-10-07 18:38:00,
2012-10-07 11:43:00,65.3,48.3,30.04,NNE,23,2.0,4.7,54,0.00,,,0.00,WUHU216HW,2012-10-07 18:43:00,
2012-10-07 11:48:00,65.7,47.6,30.04,NNE,23,6.3,6.5,52,0.00,,,0.00,WUHU216HW,2012-10-07 18:48:00,
2012-10-07 11:53:00,65.5,45.8,30.03,ENE,68,3.8,6.5,49,0.00,,,0.00,WUHU216HW,2012-10-07 18:53:00,
2012-10-07 11:58:00,65.7,46.6,30.03,North,0,0.9,5.1,50,0.00,,,0.00,WUHU216HW,2012-10-07 18:58:00,
2012-10-07 12:03:00,65.9,45.6,30.03,NE,45,4.0,4.5,48,0.00,,,0.00,WUHU216HW,2012-10-07 19:03:00,
2012-10-07 12:08:00,66.1,46.4,30.03,ENE,68,2.5,6.3,49,0.00,,,0.00,WUHU216HW,2012-10-07 19:08:00,
2012-10-07 12:13:00,66.4,47.4,30.03,East,90,1.6,6.3,50,0.00,,,0.00,WUHU216HW,2012-10-07 19:13:00,
2012-10-07 12:18:00,67.0,46.6,30.02,NE,45,4.5,4.5,48,0.00,,,0.00,WUHU216HW,2012-10-07 19:18:00,
2012-10-07 12:23:00,67.1,46.2,30.02,ENE,68,2.5,5.8,47,0.00,,,0.00,WUHU216HW,2012-10-07 19:23:00,
2012-10-07 12:28:00,67.1,45.6,30.02,NE,45,4.7,8.5,46,0.00,,,0.00,WUHU216HW,2012-10-07 19:28:00,
2012-10-07 12:33:00,67.1,46.2,30.02,North,0,1.1,8.5,47,0.00,,,0.00,WUHU216HW,2012-10-07 19:33:00,
2012-10-07 12:38:00,67.1,46.2,30.02,NE,45,1.3,6.3,47,0.00,,,0.00,WUHU216HW,2012-10-07 19:38:00,
2012-10-07 12:43:00,67.3,46.4,30.02,North,0,4.5,6.3,47,0.00,,,0.00,WUHU216HW,2012-10-07 19:43:00,
2012-10-07 12:48:00,67.3,46.4,30.01,NNE,23,4.7,5.4,47,0.00,,,0.00,WUHU216HW,2012-10-07 19:48:00,
2012-10-07 12:53:00,67.7,46.7,30.01,NNE,23,6.7,6.7,47,0.00,,,0.00,WUHU216HW,2012-10-07 19:53:00,
2012-10-07 12:58:00,67.7,45.5,30.01,North,0,6.7,7.4,45,0.00,,,0.00,WUHU216HW,2012-10-07 19:58:00,
2012-10-07 13:03:00,67.5,45.9,30.01,NE,45,5.4,8.5,46,0.00,,,0.00,WUHU216HW,2012-10-07 20:03:00,
2012-10-07 13:08:00,67.5,46.5,30.00,ENE,68,3.1,8.5,47,0.00,,,0.00,WUHU216HW,2012-10-07 20:08:00,
2012-10-07 13:13:00,68.0,47.6,30.00,NE,45,4.7,7.6,48,0.00,,,0.00,WUHU216HW,2012-10-07 20:13:00,
2012-10-07 13:18:00,68.4,47.9,30.00,NE,45,1.1,5.4,48,0.00,,,0.00,WUHU216HW,2012-10-07 20:18:00,
2012-10-07 13:23:00,68.6,46.9,30.00,ENE,68,2.0,5.4,46,0.00,,,0.00,WUHU216HW,2012-10-07 20:23:00,
2012-10-07 13:28:00,68.8,45.9,30.00,North,0,3.1,5.1,44,0.00,,,0.00,WUHU216HW,2012-10-07 20:28:00,
2012-10-07 13:33:00,68.8,47.1,29.99,East,90,3.1,5.4,46,0.00,,,0.00,WUHU216HW,2012-10-07 20:33:00,
2012-10-07 13:38:00,68.8,46.4,29.99,NNE,23,3.1,5.4,45,0.00,,,0.00,WUHU216HW,2012-10-07 20:38:00,
2012-10-07 13:43:00,68.4,46.7,29.99,SSE,158,1.8,4.7,46,0.00,,,0.00,WUHU216HW,2012-10-07 20:43:00,
2012-10-07 13:48:00,68.4,47.4,29.99,ENE,68,3.1,4.7,47,0.00,,,0.00,WUHU216HW,2012-10-07 20:48:00,
2012-10-07 13:53:00,68.2,47.2,29.99,ENE,68,1.6,3.8,47,0.00,,,0.00,WUHU216HW,2012-10-07 20:53:00,
2012-10-07 13:58:00,68.0,46.5,29.99,NE,45,6.9,6.9,46,0.00,,,0.00,WUHU216HW,2012-10-07 20:58:00,
2012-10-07 14:03:00,67.7,46.7,29.99,NE,45,1.8,6.9,47,0.00,,,0.00,WUHU216HW,2012-10-07 21:03:00,
2012-10-07 14:08:00,67.5,46.5,29.98,East,90,1.8,6.9,47,0.00,,,0.00,WUHU216HW,2012-10-07 21:08:00,
2012-10-07 14:13:00,67.5,46.5,29.98,NE,45,1.8,5.8,47,0.00,,,0.00,WUHU216HW,2012-10-07 21:13:00,
2012-10-07 14:18:00,67.5,46.5,29.98,NNE,23,2.0,4.7,47,0.00,,,0.00,WUHU216HW,2012-10-07 21:18:00,
2012-10-07 14:23:00,67.3,45.2,29.98,North,0,3.6,7.8,45,0.00,,,0.00,WUHU216HW,2012-10-07 21:23:00,
2012-10-07 14:28:00,67.3,45.7,29.98,NNE,23,4.7,7.8,46,0.00,,,0.00,WUHU216HW,2012-10-07 21:28:00,
2012-10-07 14:33:00,67.1,45.6,29.98,NE,45,2.0,6.0,46,0.00,,,0.00,WUHU216HW,2012-10-07 21:33:00,
2012-10-07 14:38:00,67.3,45.7,29.97,East,90,1.8,6.5,46,0.00,,,0.00,WUHU216HW,2012-10-07 21:38:00,
2012-10-07 14:44:00,67.3,45.2,29.97,NNW,338,3.4,6.5,45,0.00,,,0.00,WUHU216HW,2012-10-07 21:44:00,
2012-10-07 14:49:00,67.3,45.2,29.97,ENE,68,1.8,6.3,45,0.00,,,0.00,WUHU216HW,2012-10-07 21:49:00,
2012-10-07 14:54:00,67.0,45.5,29.97,NE,45,5.1,6.3,46,0.00,,,0.00,WUHU216HW,2012-10-07 21:54:00,
2012-10-07 14:59:00,67.0,45.5,29.96,NNE,23,4.5,6.3,46,0.00,,,0.00,WUHU216HW,2012-10-07 21:59:00,
2012-10-07 15:04:00,66.8,44.6,29.96,North,0,1.8,6.3,45,0.00,,,0.00,WUHU216HW,2012-10-07 22:04:00,
2012-10-07 15:09:00,66.8,45.3,29.96,North,0,2.5,6.3,46,0.00,,,0.00,WUHU216HW,2012-10-07 22:09:00,
2012-10-07 15:14:00,67.0,45.5,29.96,East,90,3.6,4.0,46,0.00,,,0.00,WUHU216HW,2012-10-07 22:14:00,
2012-10-07 15:19:00,66.8,45.3,29.96,ENE,68,4.0,6.7,46,0.00,,,0.00,WUHU216HW,2012-10-07 22:19:00,
2012-10-07 15:24:00,66.8,45.3,29.96,North,0,3.4,6.7,46,0.00,,,0.00,WUHU216HW,2012-10-07 22:24:00,
2012-10-07 15:29:00,66.4,45.5,29.96,NNW,338,2.2,5.4,47,0.00,,,0.00,WUHU216HW,2012-10-07 22:29:00,
2012-10-07 15:34:00,66.2,45.4,29.96,NNE,23,1.1,5.4,47,0.00,,,0.00,WUHU216HW,2012-10-07 22:34:00,
2012-10-07 15:39:00,66.2,45.4,29.96,ENE,68,2.5,3.4,47,0.00,,,0.00,WUHU216HW,2012-10-07 22:39:00,
2012-10-07 15:44:00,66.1,45.8,29.96,NNE,23,0.4,3.4,48,0.00,,,0.00,WUHU216HW,2012-10-07 22:44:00,
2012-10-07 15:49:00,66.1,45.8,29.96,WNW,293,1.1,3.4,48,0.00,,,0.00,WUHU216HW,2012-10-07 22:49:00,
2012-10-07 15:54:00,66.1,45.8,29.96,NE,45,2.2,4.0,48,0.00,,,0.00,WUHU216HW,2012-10-07 22:54:00,
2012-10-07 15:59:00,65.9,45.6,29.96,SSE,158,0.9,4.0,48,0.00,,,0.00,WUHU216HW,2012-10-07 22:59:00,
2012-10-07 16:04:00,65.9,45.6,29.96,NW,315,2.9,2.9,48,0.00,,,0.00,WUHU216HW,2012-10-07 23:04:00,
2012-10-07 16:09:00,65.9,45.6,29.96,ENE,68,1.8,4.7,48,0.00,,,0.00,WUHU216HW,2012-10-07 23:09:00,
2012-10-07 16:14:00,65.7,46.0,29.95,SSW,203,0.4,4.7,49,0.00,,,0.00,WUHU216HW,2012-10-07 23:14:00,
2012-10-07 16:19:00,65.9,46.2,29.95,NW,315,0.2,1.8,49,0.00,,,0.00,WUHU216HW,2012-10-07 23:19:00,
2012-10-07 16:24:00,65.9,46.2,29.95,ENE,68,0.0,1.8,49,0.00,,,0.00,WUHU216HW,2012-10-07 23:24:00,
2012-10-07 16:29:00,65.9,46.2,29.95,ENE,68,1.3,2.0,49,0.00,,,0.00,WUHU216HW,2012-10-07 23:29:00,
2012-10-07 16:34:00,65.7,46.0,29.94,ESE,113,1.6,2.0,49,0.00,,,0.00,WUHU216HW,2012-10-07 23:34:00,
2012-10-07 16:39:00,65.5,46.4,29.94,ENE,68,1.1,1.8,50,0.00,,,0.00,WUHU216HW,2012-10-07 23:39:00,
2012-10-07 16:44:00,65.3,46.3,29.94,NE,45,0.4,2.7,50,0.00,,,0.00,WUHU216HW,2012-10-07 23:44:00,
2012-10-07 16:49:00,65.0,45.9,29.94,ENE,68,1.8,2.7,50,0.00,,,0.00,WUHU216HW,2012-10-07 23:49:00,
2012-10-07 16:54:00,64.6,46.0,29.94,NE,45,1.1,2.0,51,0.00,,,0.00,WUHU216HW,2012-10-07 23:54:00,
2012-10-07 16:59:00,64.4,45.8,29.94,ENE,68,1.8,3.8,51,0.00,,,0.00,WUHU216HW,2012-10-07 23:59:00,
2012-10-07 17:04:00,64.1,45.6,29.94,NE,45,1.1,3.8,51,0.00,,,0.00,WUHU216HW,2012-10-08 00:04:00,
2012-10-07 17:09:00,63.9,45.4,29.94,NNE,23,2.9,6.3,51,0.00,,,0.00,WUHU216HW,2012-10-08 00:09:00,
2012-10-07 17:14:00,63.9,44.9,29.94,West,270,2.5,6.3,50,0.00,,,0.00,WUHU216HW,2012-10-08 00:14:00,
2012-10-07 17:19:00,63.7,44.7,29.94,NNE,23,6.0,6.0,50,0.00,,,0.00,WUHU216HW,2012-10-08 00:19:00,
2012-10-07 17:24:00,63.7,44.1,29.94,ESE,113,2.9,6.7,49,0.00,,,0.00,WUHU216HW,2012-10-08 00:24:00,
2012-10-07 17:29:00,63.7,44.1,29.93,ENE,68,2.5,7.4,49,0.00,,,0.00,WUHU216HW,2012-10-08 00:29:00,
2012-10-07 17:34:00,63.7,44.1,29.93,ENE,68,1.8,7.4,49,0.00,,,0.00,WUHU216HW,2012-10-08 00:34:00,
2012-10-07 17:40:00,63.5,44.0,29.93,NE,45,4.0,6.9,49,0.00,,,0.00,WUHU216HW,2012-10-08 00:40:00,
2012-10-07 17:45:00,63.4,43.8,29.93,NE,45,3.4,6.9,49,0.00,,,0.00,WUHU216HW,2012-10-08 00:45:00,
2012-10-07 17:50:00,63.4,43.8,29.93,NNE,23,1.3,5.8,49,0.00,,,0.00,WUHU216HW,2012-10-08 00:50:00,
2012-10-07 17:55:00,63.2,43.7,29.93,NW,315,1.1,3.8,49,0.00,,,0.00,WUHU216HW,2012-10-08 00:55:00,
2012-10-07 18:00:00,63.0,43.5,29.93,NE,45,4.5,4.5,49,0.00,,,0.00,WUHU216HW,2012-10-08 01:00:00,
2012-10-07 18:05:00,62.8,43.3,29.92,ENE,68,0.9,4.7,49,0.00,,,0.00,WUHU216HW,2012-10-08 01:05:00,
2012-10-07 18:10:00,62.6,43.2,29.92,NE,45,0.9,4.7,49,0.00,,,0.00,WUHU216HW,2012-10-08 01:10:00,
2012-10-07 18:15:00,62.6,43.2,29.91,NNW,338,1.1,2.7,49,0.00,,,0.00,WUHU216HW,2012-10-08 01:15:00,
2012-10-07 18:20:00,62.3,42.8,29.91,NE,45,0.2,2.5,49,0.00,,,0.00,WUHU216HW,2012-10-08 01:20:00,
2012-10-07 18:25:00,62.3,43.4,29.91,NE,45,0.0,2.5,50,0.00,,,0.00,WUHU216HW,2012-10-08 01:25:00,
2012-10-07 18:30:00,62.1,43.3,29.91,NNE,23,0.4,0.4,50,0.00,,,0.00,WUHU216HW,2012-10-08 01:30:00,
2012-10-07 18:35:00,61.9,43.1,29.91,NW,315,0.0,1.1,50,0.00,,,0.00,WUHU216HW,2012-10-08 01:35:00,
2012-10-07 18:40:00,61.7,43.4,29.91,West,270,0.4,1.1,51,0.00,,,0.00,WUHU216HW,2012-10-08 01:40:00,
2012-10-07 18:45:00,61.6,43.3,29.91,WNW,293,1.3,1.6,51,0.00,,,0.00,WUHU216HW,2012-10-08 01:45:00,
2012-10-07 18:50:00,61.2,42.9,29.91,NNW,338,1.1,1.6,51,0.00,,,0.00,WUHU216HW,2012-10-08 01:50:00,
2012-10-07 18:55:00,60.8,43.1,29.91,WSW,248,2.0,2.0,52,0.00,,,0.00,WUHU216HW,2012-10-08 01:55:00,
2012-10-07 19:00:00,60.3,42.6,29.91,West,270,2.2,2.5,52,0.00,,,0.00,WUHU216HW,2012-10-08 02:00:00,
2012-10-07 19:05:00,59.9,42.3,29.91,WSW,248,2.0,3.1,52,0.00,,,0.00,WUHU216HW,2012-10-08 02:05:00,
2012-10-07 19:10:00,59.4,42.2,29.91,West,270,2.5,3.1,53,0.00,,,0.00,WUHU216HW,2012-10-08 02:10:00,
2012-10-07 19:15:00,59.0,42.4,29.91,West,270,2.0,2.5,54,0.00,,,0.00,WUHU216HW,2012-10-08 02:15:00,
2012-10-07 19:20:00,58.7,42.0,29.91,West,270,1.8,2.5,54,0.00,,,0.00,WUHU216HW,2012-10-08 02:20:00,
2012-10-07 19:25:00,58.5,41.9,29.91,West,270,1.1,2.5,54,0.00,,,0.00,WUHU216HW,2012-10-08 02:25:00,
2012-10-07 19:30:00,58.3,42.2,29.91,West,270,1.1,1.8,55,0.00,,,0.00,WUHU216HW,2012-10-08 02:30:00,
2012-10-07 19:36:00,58.0,41.9,29.91,WNW,293,1.1,1.6,55,0.00,,,0.00,WUHU216HW,2012-10-08 02:36:00,
2012-10-07 19:40:00,57.8,42.2,29.91,West,270,1.8,1.8,56,0.00,,,0.00,WUHU216HW,2012-10-08 02:40:00,
2012-10-07 19:45:00,57.4,41.4,29.91,WSW,248,1.8,1.8,55,0.00,,,0.00,WUHU216HW,2012-10-08 02:45:00,
2012-10-07 19:50:00,56.9,41.3,29.91,SW,225,1.8,2.0,56,0.00,,,0.00,WUHU216HW,2012-10-08 02:50:00,
2012-10-07 19:56:00,56.3,41.2,29.91,WSW,248,1.8,2.5,57,0.00,,,0.00,WUHU216HW,2012-10-08 02:56:00,
2012-10-07 20:01:00,56.0,40.9,29.91,WSW,248,1.8,2.5,57,0.00,,,0.00,WUHU216HW,2012-10-08 03:01:00,
2012-10-07 20:06:00,55.8,40.7,29.91,WSW,248,2.5,2.5,57,0.00,,,0.00,WUHU216HW,2012-10-08 03:06:00,
2012-10-07 20:11:00,55.4,40.9,29.91,West,270,2.0,2.7,58,0.00,,,0.00,WUHU216HW,2012-10-08 03:11:00,
2012-10-07 20:16:00,55.3,40.7,29.91,WSW,248,2.2,2.7,58,0.00,,,0.00,WUHU216HW,2012-10-08 03:16:00,
2012-10-07 20:21:00,55.1,40.5,29.91,West,270,1.6,2.5,58,0.00,,,0.00,WUHU216HW,2012-10-08 03:21:00,
2012-10-07 20:26:00,55.1,40.5,29.91,West,270,1.8,2.5,58,0.00,,,0.00,WUHU216HW,2012-10-08 03:26:00,
2012-10-07 20:31:00,55.1,41.0,29.91,WSW,248,1.8,2.0,59,0.00,,,0.00,WUHU216HW,2012-10-08 03:31:00,
2012-10-07 20:36:00,54.5,41.0,29.91,WSW,248,2.5,2.7,60,0.00,,,0.00,WUHU216HW,2012-10-08 03:36:00,
2012-10-07 20:41:00,54.2,40.6,29.91,WSW,248,2.2,2.7,60,0.00,,,0.00,WUHU216HW,2012-10-08 03:41:00,
2012-10-07 20:46:00,54.0,40.5,29.91,West,270,2.0,2.5,60,0.00,,,0.00,WUHU216HW,2012-10-08 03:46:00,
2012-10-07 20:51:00,53.8,40.7,29.91,West,270,1.8,2.5,61,0.00,,,0.00,WUHU216HW,2012-10-08 03:51:00,
2012-10-07 20:56:00,53.8,40.7,29.91,WSW,248,2.5,2.5,61,0.00,,,0.00,WUHU216HW,2012-10-08 03:56:00,
2012-10-07 21:00:00,53.6,41.0,29.91,WNW,293,2.2,2.7,62,0.00,,,0.00,WUHU216HW,2012-10-08 04:00:00,
2012-10-07 21:01:00,53.6,40.5,29.91,West,270,2.5,2.7,61,0.00,,,0.00,WUHU216HW,2012-10-08 04:01:00,
2012-10-07 21:03:00,53.5,40.3,29.91,West,270,2.0,2.7,61,0.00,,,0.00,WUHU216HW,2012-10-08 04:03:00,
2012-10-07 21:08:00,53.3,40.6,29.91,West,270,1.3,2.7,62,0.00,,,0.00,WUHU216HW,2012-10-08 04:08:00,
2012-10-07 21:13:00,53.3,40.6,29.91,West,270,2.0,2.5,62,0.00,,,0.00,WUHU216HW,2012-10-08 04:13:00,
2012-10-07 21:18:00,53.3,40.6,29.91,West,270,2.0,2.5,62,0.00,,,0.00,WUHU216HW,2012-10-08 04:18:00,
2012-10-07 21:23:00,53.1,40.4,29.91,WSW,248,2.5,2.7,62,0.00,,,0.00,WUHU216HW,2012-10-08 04:23:00,
2012-10-07 21:28:00,53.1,40.4,29.91,West,270,1.3,2.7,62,0.00,,,0.00,WUHU216HW,2012-10-08 04:28:00,
2012-10-07 21:33:00,53.3,41.0,29.91,WNW,293,0.0,2.5,63,0.00,,,0.00,WUHU216HW,2012-10-08 04:33:00,
2012-10-07 21:38:00,53.3,41.0,29.91,WNW,293,0.7,2.2,63,0.00,,,0.00,WUHU216HW,2012-10-08 04:38:00,
2012-10-07 21:43:00,53.3,41.0,29.91,West,270,0.9,2.2,63,0.00,,,0.00,WUHU216HW,2012-10-08 04:43:00,
2012-10-07 21:48:00,53.3,41.0,29.91,West,270,1.1,2.2,63,0.00,,,0.00,WUHU216HW,2012-10-08 04:48:00,
2012-10-07 21:53:00,53.1,40.8,29.91,NW,315,1.6,2.0,63,0.00,,,0.00,WUHU216HW,2012-10-08 04:53:00,
2012-10-07 21:58:00,53.1,40.8,29.91,WNW,293,1.1,2.0,63,0.00,,,0.00,WUHU216HW,2012-10-08 04:58:00,
2012-10-07 22:03:00,52.9,40.6,29.91,North,0,0.0,1.8,63,0.00,,,0.00,WUHU216HW,2012-10-08 05:03:00,
2012-10-07 22:08:00,52.9,40.6,29.91,ESE,113,0.0,1.8,63,0.00,,,0.00,WUHU216HW,2012-10-08 05:08:00,
2012-10-07 22:13:00,52.9,40.6,29.91,ESE,113,0.2,1.1,63,0.00,,,0.00,WUHU216HW,2012-10-08 05:13:00,
2012-10-07 22:18:00,52.9,40.6,29.91,WSW,248,0.0,1.1,63,0.00,,,0.00,WUHU216HW,2012-10-08 05:18:00,
2012-10-07 22:23:00,52.9,40.6,29.91,WSW,248,0.0,0.4,63,0.00,,,0.00,WUHU216HW,2012-10-08 05:23:00,
2012-10-07 22:28:00,52.9,40.6,29.91,WSW,248,0.0,0.0,63,0.00,,,0.00,WUHU216HW,2012-10-08 05:28:00,
2012-10-07 22:33:00,52.9,41.1,29.91,WSW,248,0.2,1.1,64,0.00,,,0.00,WUHU216HW,2012-10-08 05:33:00,
2012-10-07 22:38:00,52.9,41.1,29.91,West,270,0.0,1.1,64,0.00,,,0.00,WUHU216HW,2012-10-08 05:38:00,
2012-10-07 22:43:00,52.9,41.1,29.91,West,270,0.4,0.7,64,0.00,,,0.00,WUHU216HW,2012-10-08 05:43:00,
2012-10-07 22:48:00,52.7,40.9,29.91,WNW,293,1.1,1.6,64,0.00,,,0.00,WUHU216HW,2012-10-08 05:48:00,
2012-10-07 22:53:00,52.6,40.7,29.91,WSW,248,0.9,1.6,64,0.00,,,0.00,WUHU216HW,2012-10-08 05:53:00,
2012-10-07 22:58:00,52.6,40.7,29.91,West,270,0.2,1.3,64,0.00,,,0.00,WUHU216HW,2012-10-08 05:58:00,
2012-10-07 23:03:00,52.4,40.5,29.91,SW,225,1.8,2.0,64,0.00,,,0.00,WUHU216HW,2012-10-08 06:03:00,
2012-10-07 23:08:00,52.2,40.3,29.91,WSW,248,1.6,2.5,64,0.00,,,0.00,WUHU216HW,2012-10-08 06:08:00,
2012-10-07 23:13:00,52.0,40.1,29.91,WSW,248,1.1,2.5,64,0.00,,,0.00,WUHU216HW,2012-10-08 06:13:00,
2012-10-07 23:18:00,51.8,40.0,29.91,West,270,1.1,2.2,64,0.00,,,0.00,WUHU216HW,2012-10-08 06:18:00,
2012-10-07 23:23:00,51.7,40.2,29.91,West,270,1.1,1.8,65,0.00,,,0.00,WUHU216HW,2012-10-08 06:23:00,
2012-10-07 23:28:00,51.5,40.1,29.90,West,270,2.2,2.2,65,0.00,,,0.00,WUHU216HW,2012-10-08 06:28:00,
2012-10-07 23:33:00,51.1,39.7,29.90,WSW,248,2.5,2.5,65,0.00,,,0.00,WUHU216HW,2012-10-08 06:33:00,
2012-10-07 23:38:00,50.8,39.8,29.90,West,270,1.1,2.5,66,0.00,,,0.00,WUHU216HW,2012-10-08 06:38:00,
2012-10-07 23:43:00,50.6,39.6,29.90,West,270,0.9,2.5,66,0.00,,,0.00,WUHU216HW,2012-10-08 06:43:00,
2012-10-07 23:48:00,50.6,39.6,29.90,West,270,1.1,1.8,66,0.00,,,0.00,WUHU216HW,2012-10-08 06:48:00,
2012-10-07 23:53:00,50.6,39.6,29.90,WSW,248,1.3,1.6,66,0.00,,,0.00,WUHU216HW,2012-10-08 06:53:00,
2012-10-07 23:58:00,50.4,39.4,29.91,WSW,248,1.3,1.8,66,0.00,,,0.00,WUHU216HW,2012-10-08 06:58:00,